小惑星A/2025 A7

A/2025 A7

English version
Home page
Updated on May 2, 2025

---------------------------------------------------------------------

・ プロフィール

発見日 2025年1月6日
発見光度 20.40等
発見者 Mt. Lemmon Survey

・ 軌道要素

Epoch 2025 May 5.0 TT = JDT 2460800.5
T 2025 Mar. 28.10243 TT                                 Pike
q   2.8834282            (2000.0)            P               Q
z  +0.0002374      Peri.  195.56540     -0.90928534     +0.39191859
 +/-0.0000058      Node   348.84394     +0.41496272     +0.82816231
e   0.9993156      Incl.  133.64905     -0.03171918     -0.40068317
H    14.
From 268 observations 2024 Dec. 2-2025 Apr. 19, mean residual 0".4.

・ 光度変化

        H = 14.9  G = 0.15

---------------------------------------------------------------------

軌道要素はM.P.E.C. 2025-H115に掲載されたものです。
光度グラフはComet for Windowsで作成したものです。

---------------------------------------------------------------------

Copyright(C) Seiichi Yoshida (comet@aerith.net). All rights reserved.